Regional Weather Roundup
Issued by NWS Upton, NY

Current Version | Previous Version | Graphics & Text | Print | Product List | Glossary Off
Versions: 1 2 3 4 5 6 7 8 9 10 11 12 13 14 15 16 17 18 19 20 21 22 23 24 25 26 27 28 29 30 31 32 33 34 35 36 37 38 39 40 41 42 43 44 45 46 47 48 49 50

000
ASUS41 KOKX 282205
RWROKX

REGIONAL WEATHER ROUNDUP
NATIONAL WEATHER SERVICE NEW YORK NY
500 PM EST SAT FEB 28 2015

NOTE: "FAIR" INDICATES FEW OR NO CLOUDS BELOW 12,000 FEET WITH NO
SIGNIFICANT WEATHER AND/OR OBSTRUCTIONS TO VISIBILITY.

NYZ071-072-176-178-NJZ106-104-282300-
NEW YORK CITY METRO AREA


CITY           SKY/WX    TMP DP  RH WIND       PRES   REMARKS
CENTRAL PARK   CLEAR     29  -1  27 W6        30.76S WCI  23
LAGUARDIA APRT PTCLDY    28   0  29 CALM      30.74S
KENNEDY INTL   PTCLDY    30   0  27 W7        30.76S WCI  23
NEWARK/LIBERTY PTCLDY    30   0  27 CALM      30.74S
BRNX BOT. GARD   N/A    N/A N/A N/A SW1       30.75R
TETERBORO      CLEAR     29   1  30 VRB3      30.73S
$$

NYZ177-179-078>081-282300-
LONG ISLAND NEW YORK

CITY           SKY/WX    TMP DP  RH WIND       PRES   REMARKS
FARMINGDALE    CLEAR     28   1  31 NW7       30.74S WCI  21
ISLIP          PTCLDY    27   2  34 NW6       30.72S WCI  20
SHIRLEY        CLEAR     27   2  34 NW8       30.74F WCI  19
WESTHAMPTON    CLEAR     27   1  32 NW6       30.74F WCI  20
MONTAUK POINT    N/A     26   8  46 W6        30.73S WCI  19
$$

NYZ052-065-067-282300-
HUDSON VALLEY

CITY           SKY/WX    TMP DP  RH WIND       PRES   REMARKS
WHITE PLAINS   CLEAR     26  -1  31 NW8       30.70S WCI  18
NEWBURGH       CLEAR     27   3  36 CALM      30.70F
MONTGOMERY     CLEAR     26   1  34 S6        30.69S WCI  19
POUGHKEEPSIE   CLEAR     28  -1  28 CALM      30.72S
ALBANY         PTCLDY    25   2  37 NW7       30.72F WCI  17
$$

NJZ001-105-106-008-010-013-015-019>022-104-282300-
NEW JERSEY

CITY           SKY/WX    TMP DP  RH WIND       PRES   REMARKS
NEWARK/LIBERTY PTCLDY    30   0  27 CALM      30.74S
TETERBORO      CLEAR     29   1  30 VRB3      30.73S
CALDWELL       CLEAR     30  -2  25 CALM      30.73S
MORRISTOWN     CLEAR     30   1  29 NW5       30.73F WCI  25
SOMERVILLE     CLEAR     28  -2  27 S3        30.73S
SUSSEX         CLEAR     29  -2  26 W3        30.69S
ANDOVER          N/A     25   1  35 SW6       30.70R WCI  18
TRENTON        CLEAR     28  -3  26 W6        30.73F WCI  22
MILLVILLE      CLEAR     30   1  29 N6        30.76S WCI  24
ATLANTIC CITY  CLEAR     31  -4  22 NW3       30.75S
WRIGHTSTOWN    CLEAR     28   0  30 NW7       30.72F WCI  21
TOMS RIVER     CLEAR     28   0  29 W6        30.75F WCI  22
BELMAR         CLEAR     28   1  31 W3        30.74S
$$

PAZ047>061-062-071-282300-
EASTERN PENNSYLVANIA

CITY           SKY/WX    TMP DP  RH WIND       PRES   REMARKS
PHILADELPHIA   FAIR      30  -1  26 CALM      30.76F
ALLENTOWN      CLEAR     26   1  34 SW7       30.72F WCI  18
SCRANTON       CLEAR     24  -1  33 CALM      30.68S
$$

CTZ002-004>006-009-010-012-RIZ004-006-007-MAZ004-011-015-282300-
SOUTHERN NEW ENGLAND
 IN CT

CITY           SKY/WX    TMP DP  RH WIND       PRES   REMARKS
BRADLEY INTL   PTCLDY    29   3  33 E3        30.68S
HARTFORD       CLEAR     30   1  29 SW7       30.70F WCI  23
DANBURY        CLEAR     25  -3  29 W3        30.71S
WTRBRY/OXFORD  CLEAR     27   0  31 CALM      30.68S
BRIDGEPORT     CLEAR     26  12  55 SW13      30.73S WCI  15
MERIDEN        CLEAR     29  -1  27 W7        30.71S WCI  22
NEW HAVEN      PTCLDY    27  11  51 SW9       30.72S WCI  18
CHESTER        FAIR      30   0  27 W5        30.69S WCI  25
GROTON         CLEAR     25  14  63 W12       30.71S WCI  14
WILLIMANTIC    CLEAR     28   0  29 W5        30.70S WCI  23

 IN RI

CITY           SKY/WX    TMP DP  RH WIND       PRES   REMARKS
PROVIDENCE     PTCLDY    25  11  55 S9        30.70R WCI  15
BLOCK ISLAND   CLEAR     27  10  50 W10       30.69F WCI  17
WESTERLY       CLEAR     27  14  58 SW10      30.71S WCI  17

 IN MA

CITY           SKY/WX    TMP DP  RH WIND       PRES   REMARKS
BOSTON         PTCLDY    30   0  27 W7        30.68S WCI  23
WORCESTER      CLEAR     25  -2  31 W10       30.61S WCI  15
WESTFIELD      CLEAR     29   1  30 W10       30.67S WCI  20
PROVINCETOWN   CLEAR     25   5  42 SW3       30.69S
NANTUCKET      CLEAR     24   7  48 W8        30.71R WCI  15
$$

ANZ330-335-338-340-345-350-353-355-282300-
COASTAL MARINE OBSERVATIONS


STATION/POSITION TIME  SKY/WX   TEMP    WIND        PRES    VSBY  WAVE
                                AIR SEA DIR/SP/G                  HT/PER
                 (UTC)          (F)     (DEG/KT/KT) (MB)    (MI)  (FT/S)
NY HARB ENTRANCE 2200            28 38  310/ 10/ 12 1041.3          2/ 9
4S FIRE IS       NOT AVBL
20S FIRE ISLAND  2100               37              1042.0          2/10
23SW MTP         2200                                 N/A           2/ 8
HUDSON CANYON    NOT AVBL
EXECUTION ROCKS  NOT AVBL
WESTERN LI SOUND NOT AVBL
CENTRAL LI SOUND NOT AVBL
EASTERN LI SOUND NOT AVBL
ROBBINS REEF     2200            26     150/  4/  5 1039.9
$$


>>>>>>>>>>>>>>>>>>>>>>>>>>>> KEY <<<<<<<<<<<<<<<<<<<<<<<<<<<
>                                                          <
>     SKY/WX - SKY CONDITION/PRESENT WEATHER               <
>     TMP    - TEMPERATURE IN FAHRENHEIT                   <
>     DP     - DEWPOINT IN FAHRENHEIT                      <
>     RH     - RELATIVE HUMIDITY IN PERCENT                <
>     WIND   - DIRECTION AND SPEED IN MPH                  <
>     PRES   - MEAN SEA LEVEL PRESSURE IN INCHES OF HG     <
>     WCI    - WIND CHILL INDEX                            <
>     VSB    - VISIBILITY IN MILES                         <
>     HX     - HEAT INDEX                                  <
>     TC     - TEMPERATURE IN CELSIUS                      <
>     VRB    - VARIABLE WIND DIRECTION                     <
>                                                          <
>>>>>>>>>>>>>>>>>>>>>>>>>>>> KEY <<<<<<<<<<<<<<<<<<<<<<<<<<<





USA.gov is the U.S. government's official web portal to all federal, state and local government web resources and services.